Probability
0 0 0 0 0 0 0 0 0 0 0 0 0 0 0 0 0 0 0 0 0 0 0 0 0 0 0 0 0 0 0 0 0 0 0 0 0 0 0 0 0 0 0
0 0 0 0 0 0 0 0 0 0 0 0 0 0 0 0 0 0 0 0 0 0 0 0 0 0 0 0 0 0 0 0 0 0 0 0 0 0 0 0 0 0 0
0 0 0 0 0 0 0 0 0 0 0 0 0 0 0 0 0 0 0 0 0 0 0 0 0 0 0 0 0 0 0 0 0 0 0 0 0 0 0 0 0 0 0
0 0 0 0 0 0 0 0 0 0 0 0 0 0 0 0 0 0 0 0 0 0 0 0 0 0 0 0 0 0 0 0 0 0 0 0 0 0 0 0 0 0 0
0 0 0 0 0 0 0 0 0 0 0 0 0 0 0 0 0 0 0 0 0 0 0 0 0 0 0 0 0 0 0 0 0 0 0 0 0 0 0 0 0 0 0
0 0 0 0 0 0 0 0 0 0 0 0 0 0 0 0 0 0 0 0 0 0 0 0 0 0 0 0 0 0 0 0 0 0 0 0 0 0 0 0 0 0 0
0 0 0 0 0 0 0 0 0 0 0 0 0 0 0 0 0 0 0 0 0 0 0 0 0 0 0 0 0 0 0 0 0 0 0 0 0 0 0 0 0 0 0
0 0 0 0 0 0 0 0 0 0 0 0 0 0 0 0 0 0 0 0 0 0 0 0 0 0 0 0 0 0 0 0 0 0 0 0 0 0 0 0 0 0 0
0 0 0 0 0 0 0 0 0 0 0 0 0 0 0 0 0 0 0 0 0 0 0 0 0 0 0 0 0 0 0 0 0 0 0 0 0 0 0 0 0 0 0
0 0 0 0 0 0 0 0 0 0 0 0 0 0 0 0 0 0 0 0 0 0 0 0 0 0 0 0 0 0 0 0 0 0 0 0 0 0 0 0 0 0 0
0 0 0 0 0 0 0 0 0 0 0 0 0 0 0 0 0 0 0 0 0 0 0 0 0 0 0 0 0 0 0 0 0 0 0 0 0 0 0 0 0 0 0
0 0 0 0 0 0 0 0 1 1 0 0 0 0 0 0 0 0 0 0 0 0 0 0 0 0 0 0 0 0 0 0 0 0 0 0 0 0 0 0 0 0 0
0 0 0 0 0 0 0 0 1 1 0 0 0 0 0 0 0 0 0 0 0 0 0 0 0 0 0 0 0 0 0 0 0 0 0 0 0 0 0 0 0 0 0
0 0 0 0 0 0 0 0 1 1 0 0 0 0 0 0 0 0 0 0 0 0 0 0 0 0 0 0 0 0 0 0 0 0 0 0 0 0 0 0 0 0 0
0 0 0 0 0 0 0 0 0 0 0 0 0 0 0 0 0 0 0 0 0 0 0 0 0 0 0 0 0 0 0 0 0 0 0 0 0 0 0 0 0 0 0
0 0 0 0 0 0 0 0 0 0 0 0 0 0 0 0 0 0 0 0 0 0 0 0 0 0 0 0 0 0 0 0 0 0 0 0 0 0 0 0 0 0 0
0 0 0 0 0 0 0 0 0 0 0 0 0 0 0 0 0 0 0 0 0 0 0 0 0 0 0 0 0 0 0 0 0 0 0 0 0 0 0 0 0 0 0
0 0 0 0 0 0 0 0 0 0 0 0 0 0 0 0 0 0 0 0 0 0 0 0 0 0 0 0 0 0 0 0 0 0 0 0 0 0 0 0 0 0 0
0 0 0 0 0 0 0 0 0 0 0 0 0 0 0 0 0 0 0 0 0 0 0 0 0 0 0 0 0 0 0 0 0 0 0 0 0 0 0 0 0 0 0
0 0 0 0 0 0 0 0 0 0 0 0 0 0 0 0 0 0 0 0 0 0 0 0 0 0 0 0 0 0 0 0 0 0 0 0 0 0 0 0 0 0 0
0 0 0 0 0 0 0 0 0 0 0 0 0 0 0 0 0 0 0 0 0 0 0 0 0 0 0 0 0 0 0 0 0 0 0 0 0 0 0 0 0 0 0
0 0 0 0 0 0 0 0 0 0 0 0 0 0 0 0 0 0 0 0 0 0 0 0 0 0 0 0 0 0 0 0 0 0 0 0 0 0 0 0 0 0 0
0 0 0 0 0 0 0 0 0 0 0 0 0 0 0 0 0 0 0 0 0 0 0 0 0 0 0 0 0 0 0 0 0 0 0 0 0 0 0 0 0 0 0
0 0 0 0 0 0 0 0 0 0 0 0 0 0 0 0 0 0 0 0 0 0 0 0 0 0 0 0 0 0 0 0 0 0 0 0 0 0 0 0 0 0 0
0 0 0 0 0 0 0 0 0 0 0 0 0 0 0 0 0 0 0 0 0 0 0 0 0 0 0 0 0 0 0 0 0 0 0 0 0 0 0 0 0 0 0
0 0 0 0 0 0 0 0 0 0 0 0 0 0 0 0 0 0 0 0 0 0 0 0 0 0 0 0 0 0 0 0 0 0 0 0 0 0 0 0 0 0 0
Wind_Speed
10 12 13 13 14 13 13 13 13 13 13 12 13 13 13 13 13 13 13 13 14 14 14 15 15 15 15 15 15 15 15 15 15 15 15 15 15 14 14 12 10 12 15
13 13 13 13 14 14 13 13 13 12 12 12 12 12 13 12 12 12 12 13 13 13 13 14 14 14 14 14 14 14 14 14 13 12 10 12 14 14 14 13 13 11 14
14 14 14 12 13 13 13 12 12 12 12 12 12 12 12 12 12 12 12 12 12 12 13 13 13 13 13 13 13 13 13 12 11 8 5 9 11 13 13 13 13 13 13
14 13 13 13 13 14 13 12 12 12 12 11 11 11 12 12 12 12 11 11 11 12 12 12 12 12 12 11 11 11 11 11 9 4 6 8 9 12 12 12 12 12 12
13 12 13 12 13 14 13 12 12 12 11 11 11 11 11 11 11 11 10 10 10 10 11 11 11 11 10 10 10 10 10 9 5 5 7 7 8 10 11 11 11 10 10
13 12 13 12 13 13 12 12 12 11 11 11 10 10 11 11 10 10 9 9 9 9 10 10 10 9 9 9 9 9 8 5 2 6 6 6 7 9 9 9 8 9 8
13 12 14 11 11 12 12 12 11 11 11 10 10 10 10 10 10 9 9 8 8 8 8 9 9 8 8 7 7 7 6 3 3 5 5 5 6 7 7 7 7 7 7
12 12 12 11 10 11 10 10 10 10 10 10 9 9 9 10 9 9 8 8 7 7 7 7 7 7 7 6 6 5 4 1 2 3 3 4 5 4 5 5 5 5 5
12 11 11 12 12 10 9 9 9 9 9 9 9 8 7 7 8 7 6 7 7 6 6 6 6 6 6 5 5 5 3 1 1 2 2 2 3 2 3 3 3 3 3
10 11 11 11 11 11 11 9 9 9 8 8 8 8 7 7 6 6 6 6 6 6 6 5 5 4 4 4 4 4 2 3 1 1 0 1 2 2 1 1 1 0 1
10 10 10 11 11 10 10 10 9 9 8 9 8 8 8 7 7 6 6 5 5 5 5 5 4 4 3 4 3 2 3 2 1 2 1 1 3 4 3 3 3 2 3
13 12 10 11 11 10 8 8 8 8 8 8 7 9 7 6 5 5 5 4 4 4 4 5 4 4 4 3 4 4 3 3 3 3 1 1 5 6 6 5 5 5 5
14 13 11 11 11 10 7 7 5 5 6 7 9 8 6 6 5 5 4 5 6 6 5 5 6 4 4 3 3 3 3 4 3 3 3 3 7 8 8 8 8 7 7
14 14 13 12 11 11 9 7 7 6 5 6 8 9 7 5 5 5 4 5 5 4 5 5 4 5 5 5 5 5 5 5 4 4 3 4 8 10 11 11 10 10 10
14 14 14 13 13 11 10 7 7 7 7 7 7 8 9 6 6 6 5 5 6 5 5 5 5 6 6 6 6 6 7 7 7 7 4 7 9 11 12 13 13 13 13
15 15 14 14 14 12 10 9 8 8 7 8 8 9 10 8 7 6 6 6 6 6 6 6 6 6 6 5 7 7 8 8 8 8 8 7 10 13 14 15 15 15 15
15 14 14 14 14 14 13 12 9 8 8 8 8 10 10 9 9 7 7 6 6 6 7 6 7 6 6 6 8 8 8 9 9 9 9 8 8 10 14 16 16 17 17
14 14 14 12 14 15 13 12 9 9 9 8 8 9 11 11 10 8 7 7 7 6 6 6 6 6 6 7 7 7 7 8 10 11 10 10 9 8 10 14 16 17 18
14 14 14 14 15 14 14 11 10 9 10 9 8 9 10 12 12 10 8 7 7 6 6 6 6 6 7 7 7 7 8 8 9 10 11 12 11 10 9 9 12 15 17
12 13 13 14 14 13 11 9 9 10 9 9 9 10 12 11 12 11 8 9 8 7 7 7 8 7 6 6 6 8 9 9 9 10 11 10 9 11 10 10 8 9 15
12 13 14 14 14 12 10 10 10 10 10 10 10 12 13 12 12 11 9 9 9 8 9 9 8 8 7 5 5 7 8 10 10 9 8 8 9 9 10 10 8 8 7
12 13 13 14 14 14 12 10 9 9 8 9 9 11 13 13 13 11 12 9 9 8 10 10 9 6 6 6 5 5 6 5 6 7 7 7 8 7 8 9 9 9 8
12 13 12 14 14 14 14 10 8 7 7 8 10 10 12 13 13 12 13 11 10 10 9 10 10 11 8 7 7 6 5 5 4 4 6 6 6 6 7 7 9 10 10
12 11 12 12 13 13 13 12 14 11 11 12 9 9 10 12 13 13 13 12 11 10 10 10 10 9 10 8 6 8 8 6 5 5 4 5 7 8 9 7 8 10 10
10 10 10 11 11 12 13 14 14 13 11 9 8 9 10 10 11 12 12 12 11 10 11 11 10 10 9 9 7 6 8 8 9 8 9 7 7 7 8 9 8 8 9
9 8 8 9 10 11 12 13 14 15 13 11 10 9 8 7 8 10 11 11 11 10 11 11 10 11 10 10 9 8 7 7 8 9 11 11 10 8 8 8 9 8 8
Wind_Direction
154 150 145 146 143 138 133 130 126 124 123 121 119 116 113 109 107 105 103 101 98 96 93 91 89 86 84 82 80 78 76 73 71 71 73 72 72 73 69 62 66 71 67
148 150 146 148 145 141 137 134 131 129 127 125 123 120 117 113 111 109 106 103 101 99 97 94 92 89 88 85 82 80 77 74 71 68 72 79 72 71 69 64 60 69 69
147 149 151 148 146 143 141 138 136 134 132 128 125 123 120 118 116 112 110 108 106 103 101 98 95 92 91 88 85 83 80 76 71 62 67 80 78 71 70 68 66 67 68
149 153 153 146 148 146 145 143 141 138 135 132 129 128 125 122 121 118 115 113 110 108 106 103 99 96 93 90 88 86 82 75 65 48 72 74 77 72 69 66 64 62 65
153 155 147 150 151 150 149 147 144 141 138 135 133 133 131 128 125 123 120 116 114 113 112 108 105 100 96 93 90 89 85 78 68 73 75 75 76 72 69 66 63 61 61
155 156 151 156 154 154 153 151 148 146 144 141 140 138 136 133 131 129 128 122 118 116 117 112 109 105 101 98 94 92 89 81 106 78 76 73 74 72 69 69 66 62 61
158 160 157 158 156 156 157 155 153 151 149 147 146 144 141 138 138 138 137 130 125 121 119 117 113 110 106 103 100 96 91 67 68 77 72 76 73 68 68 68 68 64 62
161 162 161 158 159 159 160 159 157 155 154 152 150 150 148 146 145 145 143 140 135 132 129 125 121 118 114 107 103 99 87 28 101 82 76 78 66 65 71 66 66 62 59
166 167 169 169 168 164 163 162 160 157 155 155 153 150 147 148 149 148 147 150 148 145 143 138 134 129 124 115 111 108 99 356 291 80 73 74 46 45 64 62 61 60 52
174 177 176 176 176 176 174 166 163 159 158 157 152 146 144 146 151 149 161 156 160 160 155 151 145 144 133 126 119 121 138 228 248 201 230 79 10 328 352 347 332 353 8
184 186 184 183 183 182 180 171 172 165 163 163 161 154 164 179 178 176 177 162 168 169 169 166 160 155 149 144 137 151 214 250 265 271 264 36 294 284 276 274 270 272 269
191 191 190 191 188 186 182 180 186 184 181 188 184 179 189 190 189 191 162 172 176 173 180 183 177 181 213 203 176 205 239 258 262 258 255 288 275 273 270 266 265 264 265
194 193 195 195 193 191 187 188 188 190 191 196 194 192 193 194 191 198 189 186 199 201 207 195 205 219 226 238 247 245 258 262 261 261 247 244 269 269 268 263 260 261 261
198 199 198 196 197 197 196 194 194 195 196 198 197 198 196 198 203 203 206 205 207 211 217 220 223 226 232 236 247 255 257 258 261 265 260 241 263 267 266 263 260 259 259
205 204 201 199 200 199 200 200 200 202 203 203 202 202 205 205 207 209 212 213 216 217 219 225 231 232 236 240 245 252 256 259 261 260 255 233 249 261 263 263 262 261 259
210 209 205 203 203 202 203 204 204 205 206 209 207 207 207 211 210 211 214 218 221 221 224 229 237 241 244 246 250 252 257 260 258 259 262 249 235 247 256 260 262 262 261
213 212 209 207 206 207 209 210 209 207 206 209 210 210 209 213 214 214 217 218 222 223 225 230 237 241 246 248 252 254 256 258 260 260 261 262 254 238 242 253 258 261 262
215 214 212 207 209 209 210 211 211 212 211 213 213 211 212 214 216 216 218 221 219 218 219 223 229 235 241 247 254 256 254 255 257 258 258 256 256 256 242 240 250 257 260
218 215 214 210 211 211 211 213 214 215 216 216 215 216 214 213 214 216 220 221 215 216 219 221 227 233 244 249 256 263 263 260 259 257 256 255 252 252 255 244 238 247 255
220 217 216 214 214 212 210 212 215 219 220 219 218 219 217 215 213 216 220 220 214 216 220 220 226 230 243 255 263 266 265 262 259 257 257 254 250 249 250 254 248 239 240
219 217 215 214 212 207 205 206 210 216 217 218 220 220 220 219 214 214 218 219 215 218 222 222 224 230 233 234 255 270 265 253 252 251 250 250 248 246 246 246 247 250 243
220 218 216 215 212 208 208 207 210 213 217 220 221 221 220 219 217 214 217 219 216 220 224 223 219 226 227 210 226 265 282 266 232 239 243 246 252 248 245 245 246 245 250
223 220 217 216 214 211 209 206 204 211 217 215 218 219 218 217 216 217 219 220 220 219 224 223 219 224 230 220 219 230 252 270 303 248 240 245 246 246 250 250 250 251 250
227 224 221 218 216 213 207 206 205 207 214 218 216 216 216 215 217 219 221 222 223 223 226 225 221 224 229 230 220 228 242 267 275 288 253 243 248 253 258 258 256 255 253
230 226 222 219 217 214 208 208 209 217 223 224 218 218 217 214 215 219 221 222 224 225 227 226 222 222 225 230 226 220 230 239 242 256 274 273 262 254 257 261 262 260 258
233 225 223 220 219 215 210 210 212 217 221 221 219 217 216 214 214 218 221 223 225 226 227 227 226 225 226 231 232 228 223 229 230 237 254 269 275 272 265 259 257 257 257